GSAT-19

Last updated on Sun Jul 06 2025 00:02:45 GMT+0000 (Coordinated Universal Time)

1 42747U 17031A 25186.60233369 .00000141 00000+0 00000+0 0 9994 2 42747 0.0596 270.0289 0006209 187.4980 91.0287 1.00274280 29662
UTC large
Height (km)
Speed (km/s)
/
Latitude / Longitude
Inclination (degrees)
Orbital Period (minutes)
Azimuth
Elevation
Range (km)
Doppler Factor

Next 0 passes for location: London (51.5072 / 0.1276)

Sorry there are no passes over London.